Wind_Speed
20 20 21 22 21 21 21 21 22 22 23 24 22 22 21 21 21 20 21 21 22 22 22 20 19 19 19 18 18 18 18 17 18 17 17 18 18 19 19 18 19 18 18 18
20 20 21 22 21 20 21 22 22 22 22 23 22 22 21 21 20 21 21 21 21 21 21 20 19 19 18 19 19 18 18 18 18 18 18 18 19 19 19 18 18 19 18 18
21 21 21 21 20 20 20 21 21 21 22 22 22 22 21 21 21 21 20 20 20 20 19 19 18 19 18 18 17 17 17 17 17 18 18 18 18 19 19 18 18 18 18 18
22 21 21 21 21 20 20 20 20 20 21 22 22 21 21 21 21 20 20 19 18 18 17 18 18 18 18 18 17 16 17 17 17 18 18 18 18 18 18 18 18 18 18 19
22 21 22 22 21 20 19 20 20 19 19 20 20 20 20 20 20 20 19 19 18 18 18 17 17 17 17 16 16 16 16 16 17 16 16 17 17 18 18 18 18 18 18 18
21 21 21 22 21 19 19 19 19 19 19 18 18 18 18 19 19 19 19 19 18 18 18 17 17 16 16 16 15 15 15 15 16 16 16 16 16 17 17 17 17 17 17 17
21 21 22 22 20 19 19 19 18 18 18 18 18 19 18 19 19 19 19 19 18 17 17 16 16 15 15 14 14 15 14 14 14 15 14 14 14 14 15 16 16 16 15 15
22 22 22 21 19 19 18 18 18 18 18 18 18 19 19 19 19 19 18 18 17 16 16 14 13 13 13 12 12 12 11 11 12 13 12 11 12 13 13 14 14 14 15 15
23 22 21 20 19 19 19 19 19 19 18 19 19 19 19 18 18 17 16 16 15 15 14 13 12 11 11 11 10 10 10 10 11 11 10 10 10 12 12 13 13 13 14 13
22 21 20 19 19 19 20 20 20 19 19 19 19 18 18 17 16 15 14 13 14 13 12 11 11 10 10 9 9 8 9 9 9 9 9 9 9 10 11 12 12 13 13 14
21 20 20 19 19 19 19 19 19 19 19 18 17 16 15 15 14 13 12 11 11 11 10 9 8 8 7 7 7 7 7 8 7 8 8 8 9 10 11 12 13 13 14 14
20 20 19 18 18 18 19 18 18 18 17 17 16 15 14 13 12 11 11 10 9 9 9 8 7 6 6 6 6 6 6 6 6 7 7 8 9 10 11 12 12 13 13 14
20 19 19 19 19 18 17 17 17 17 16 16 15 14 13 11 10 10 9 8 7 7 6 6 6 5 5 4 4 5 5 5 4 5 7 7 9 10 11 11 12 13 14 14
19 18 18 18 18 17 16 16 16 15 14 14 13 12 11 10 9 9 8 7 6 5 5 5 5 5 4 3 4 5 5 4 4 6 7 8 9 10 11 11 12 12 13 14
18 17 17 17 17 17 16 16 14 13 12 12 11 11 10 10 9 8 6 6 6 5 4 4 3 2 2 2 4 4 4 4 5 5 7 8 9 10 11 12 12 13 13 14
17 17 17 17 17 16 16 15 13 12 11 10 9 8 8 8 7 6 5 5 5 4 2 2 1 1 1 2 3 4 4 5 5 6 7 8 9 10 11 12 13 13 14 14
17 16 16 15 15 15 15 14 13 11 10 9 8 7 7 6 5 5 4 5 5 3 2 1 1 1 1 2 3 3 4 5 5 6 7 8 9 10 12 13 13 14 14 15
16 16 16 15 14 14 14 13 11 10 10 9 8 7 7 7 6 6 6 6 5 4 3 2 2 1 2 2 2 3 5 5 6 7 7 8 10 11 12 13 14 14 15 16
15 15 15 14 14 14 13 12 11 11 10 9 8 8 7 7 7 6 7 6 5 4 4 3 2 2 2 2 2 4 5 6 6 7 8 9 10 11 12 13 14 15 16 17
15 15 14 13 13 13 12 11 10 10 9 8 8 7 7 7 7 7 7 6 6 6 5 3 3 3 2 2 3 4 5 6 6 7 8 9 10 11 13 14 15 16 16 17
15 14 13 12 12 12 11 10 10 10 9 8 8 7 7 7 7 7 7 6 6 6 5 4 3 3 2 2 3 5 6 6 7 8 9 10 11 12 13 14 15 16 17 17
15 14 13 12 12 11 11 11 11 10 9 8 8 8 8 8 8 7 7 6 6 6 5 4 3 3 2 3 3 4 5 6 7 8 9 10 11 12 13 15 16 17 17 18
15 14 13 13 12 12 12 12 11 11 10 9 8 8 8 9 8 8 7 7 7 6 4 4 3 3 3 4 4 5 5 6 7 8 9 10 11 13 14 15 16 17 18 19
16 15 13 12 12 11 11 12 11 10 10 9 9 9 9 9 9 8 8 7 7 6 5 4 3 3 3 3 4 4 5 6 8 9 10 11 12 13 14 15 16 18 19 20
17 15 14 13 12 11 11 11 11 11 11 10 9 9 10 9 9 8 8 7 7 7 6 5 4 3 3 3 4 5 5 7 8 10 11 11 12 13 14 16 17 19 20 21
17 15 14 14 13 12 12 12 12 12 12 11 10 10 11 10 10 9 8 7 7 7 6 5 4 3 4 4 5 5 6 8 9 10 11 12 12 14 15 16 18 20 21 22
17 15 14 14 14 13 13 12 13 13 12 12 11 11 11 11 11 10 9 9 8 7 6 5 5 5 4 5 6 6 7 8 10 11 11 12 13 14 16 18 19 20 21 23
Wind_Direction
299 296 295 295 295 293 288 284 284 284 285 286 288 289 290 289 289 290 292 293 294 293 291 290 291 293 293 292 296 298 299 302 306 310 313 314 316 318 321 323 325 324 323 322
302 300 298 298 297 293 289 287 286 284 284 286 287 287 288 288 289 289 291 291 292 292 292 290 291 293 292 292 295 296 297 301 306 309 312 315 318 319 320 322 325 325 324 324
303 303 300 299 297 293 290 290 289 288 288 289 290 289 288 288 289 290 292 290 288 290 290 287 286 287 288 291 294 295 296 300 302 305 309 313 317 319 323 325 324 324 325 324
305 304 301 299 296 294 292 291 289 288 287 288 288 287 288 288 290 292 293 293 293 292 291 288 286 284 284 287 289 293 295 297 300 301 307 313 316 320 323 325 324 324 323 324
305 303 301 300 299 297 293 291 289 290 288 287 286 284 285 287 288 290 293 293 293 292 291 289 288 285 283 284 287 290 293 297 301 303 307 311 316 319 322 324 325 326 326 326
302 302 301 300 298 297 295 294 294 294 291 289 286 284 284 284 287 288 290 291 291 291 290 290 288 285 284 286 287 288 292 296 299 303 306 308 314 318 323 326 327 327 328 330
302 301 300 299 296 293 293 294 295 293 289 287 286 287 286 286 287 287 289 291 292 291 289 289 287 283 284 284 286 289 291 295 299 305 306 309 313 319 323 326 328 329 332 336
303 302 299 297 293 290 289 293 293 289 288 286 286 286 285 288 287 286 287 290 291 292 289 288 283 280 280 283 287 289 291 295 302 308 309 313 318 322 325 328 329 332 333 335
299 298 295 293 291 287 286 289 291 290 289 288 287 287 287 290 290 288 287 290 290 291 290 286 279 277 278 284 288 291 293 293 301 306 313 321 324 325 326 328 333 337 337 337
298 296 293 293 291 287 286 288 290 287 289 289 287 285 285 289 288 284 285 287 290 290 289 284 278 275 276 285 289 293 294 295 304 311 317 322 327 332 336 338 337 339 343 342
297 294 293 292 291 287 286 288 289 287 288 288 286 286 286 288 284 281 282 287 291 290 286 286 278 274 274 284 289 296 300 302 308 318 324 331 336 337 337 339 340 340 340 342
296 295 294 293 291 287 287 288 288 286 285 282 283 286 287 285 283 281 284 285 287 286 282 287 281 275 274 285 293 300 302 311 318 322 332 340 341 340 339 339 340 340 340 342
293 295 294 294 292 290 290 291 289 286 284 279 279 282 283 281 277 275 278 278 281 282 279 283 280 277 275 285 299 311 314 322 327 329 335 341 342 341 340 339 340 341 342 344
291 293 293 292 290 289 291 291 288 285 282 280 279 277 274 271 268 268 270 272 273 276 279 295 285 277 273 282 303 314 321 327 330 334 337 337 338 340 340 339 341 342 343 344
288 289 290 291 289 289 291 291 287 284 281 279 274 270 264 265 267 268 271 266 263 262 281 303 301 290 282 301 314 319 325 329 332 335 338 339 339 340 342 342 342 343 343 343
285 286 288 289 288 287 288 287 284 279 278 277 272 264 259 261 262 263 258 247 233 233 255 283 288 284 313 321 321 323 327 328 334 339 341 342 340 340 344 344 343 342 343 343
283 284 285 285 282 283 285 281 277 274 274 274 267 259 254 249 246 246 240 222 217 219 224 236 246 272 312 323 324 329 333 331 336 341 344 342 341 339 341 343 343 343 342 342
287 285 284 282 281 282 281 277 272 269 270 268 259 249 244 240 234 230 222 213 211 208 204 211 227 263 298 314 325 333 333 335 339 343 341 339 339 340 342 343 344 343 341 339
286 286 285 283 280 280 278 273 269 268 266 261 254 246 238 231 224 218 211 207 208 209 207 212 235 268 286 308 329 331 329 328 331 338 341 339 339 341 342 341 342 341 339 338
282 283 283 282 278 276 272 269 265 260 256 254 244 237 232 225 220 213 206 203 208 209 212 220 238 260 266 297 325 333 333 332 328 333 342 344 343 343 343 344 345 344 342 341
278 278 278 279 274 269 264 259 254 251 252 250 239 231 223 215 209 204 199 201 205 207 210 216 234 242 241 287 320 333 335 334 330 330 338 345 345 345 345 346 347 347 345 344
275 273 272 273 267 259 255 253 248 244 242 241 231 218 209 202 198 196 196 199 197 198 206 216 234 239 257 295 317 328 332 333 331 332 335 342 346 346 344 346 349 348 347 346
271 271 270 268 261 253 250 247 243 238 234 229 218 208 201 197 196 196 195 197 198 199 205 215 233 244 268 296 310 320 327 329 329 330 333 336 342 345 344 346 349 348 346 346
269 268 265 262 255 247 242 240 235 228 223 216 210 203 198 196 197 199 200 200 202 203 208 219 235 250 273 294 309 319 326 328 329 330 332 334 339 343 346 347 348 348 347 346
263 260 256 253 246 236 231 228 221 216 213 212 210 205 200 199 200 201 202 202 203 207 211 218 235 257 278 295 309 320 326 330 332 332 331 333 336 341 344 345 346 346 346 345
254 252 248 241 234 229 224 219 214 210 209 210 209 206 203 203 203 204 205 205 207 208 210 221 243 266 278 287 301 315 324 329 331 332 332 333 335 339 342 342 342 344 344 344
249 246 240 231 227 224 220 214 209 207 208 208 208 207 205 205 208 211 212 213 213 214 222 233 248 262 274 288 301 311 319 325 329 332 333 334 335 338 340 342 342 343 343 344
Height
5810 5809 5807 5805 5804 5802 5801 5800 5799 5799 5797 5796 5795 5794 5792 5791 5790 5789 5788 5786 5784 5782 5780 5779 5777 5776 5774 5772 5770 5768 5766 5764 5761 5759 5756 5754 5751 5747 5743 5740 5737 5733 5729 5726
5805 5803 5800 5799 5798 5796 5795 5793 5792 5792 5791 5789 5788 5787 5786 5785 5784 5783 5782 5780 5778 5776 5775 5773 5772 5770 5769 5767 5765 5764 5762 5760 5758 5755 5753 5750 5747 5744 5741 5737 5734 5730 5726 5723
5800 5797 5794 5793 5792 5790 5789 5787 5786 5785 5785 5783 5782 5781 5780 5778 5777 5776 5775 5774 5772 5771 5769 5767 5766 5765 5763 5762 5760 5759 5757 5755 5754 5752 5749 5747 5744 5741 5738 5734 5731 5727 5724 5720
5793 5792 5790 5789 5785 5784 5783 5781 5779 5778 5778 5777 5775 5774 5773 5772 5771 5770 5769 5767 5766 5764 5763 5762 5760 5759 5758 5756 5755 5754 5753 5751 5749 5748 5746 5743 5740 5738 5734 5731 5728 5725 5721 5718
5788 5786 5784 5782 5779 5778 5776 5775 5773 5772 5771 5770 5769 5768 5767 5766 5765 5764 5762 5761 5759 5758 5756 5755 5754 5753 5752 5751 5750 5750 5748 5747 5745 5744 5742 5740 5737 5734 5731 5728 5725 5722 5718 5715
5782 5780 5778 5777 5773 5772 5771 5769 5767 5766 5764 5764 5763 5762 5762 5760 5759 5758 5756 5755 5753 5752 5750 5749 5748 5747 5747 5746 5746 5745 5744 5742 5741 5740 5738 5736 5734 5731 5728 5725 5722 5719 5716 5712
5776 5774 5772 5770 5767 5766 5766 5764 5762 5760 5759 5758 5757 5756 5755 5754 5752 5751 5749 5748 5747 5746 5744 5744 5743 5742 5742 5741 5741 5740 5739 5738 5736 5735 5734 5732 5730 5728 5725 5723 5720 5716 5713 5710
5770 5768 5768 5763 5761 5760 5759 5757 5755 5754 5753 5752 5751 5750 5749 5747 5746 5744 5743 5742 5741 5740 5739 5738 5738 5737 5737 5736 5736 5735 5735 5734 5733 5731 5730 5728 5727 5725 5723 5720 5717 5714 5711 5708
5765 5764 5760 5757 5755 5754 5752 5751 5749 5748 5747 5746 5745 5744 5743 5742 5740 5738 5737 5736 5735 5734 5734 5733 5733 5733 5733 5733 5732 5731 5731 5730 5729 5728 5727 5725 5724 5722 5720 5717 5715 5712 5709 5706
5757 5756 5753 5751 5749 5748 5746 5745 5743 5742 5741 5740 5738 5737 5737 5736 5734 5733 5732 5731 5730 5729 5729 5729 5728 5729 5729 5729 5728 5728 5727 5727 5726 5725 5724 5723 5721 5720 5717 5715 5713 5710 5707 5704
5751 5750 5748 5746 5744 5742 5740 5739 5737 5736 5735 5733 5732 5731 5731 5730 5729 5728 5728 5727 5726 5725 5725 5725 5725 5725 5725 5726 5725 5725 5725 5724 5723 5723 5722 5721 5719 5717 5715 5713 5711 5708 5705 5702
5745 5743 5741 5740 5738 5736 5735 5733 5732 5731 5729 5728 5726 5726 5725 5725 5725 5724 5724 5723 5723 5722 5722 5722 5722 5722 5723 5723 5723 5722 5722 5721 5721 5720 5720 5719 5717 5715 5713 5711 5709 5706 5703 5700
5739 5737 5735 5734 5732 5731 5729 5728 5726 5725 5724 5723 5722 5721 5721 5721 5721 5721 5721 5720 5720 5719 5719 5719 5719 5720 5720 5720 5720 5720 5720 5719 5719 5718 5718 5716 5715 5713 5711 5709 5706 5704 5701 5698
5733 5732 5730 5729 5727 5725 5724 5723 5721 5720 5719 5718 5717 5717 5717 5717 5718 5718 5718 5718 5718 5718 5718 5717 5717 5718 5718 5718 5719 5718 5718 5718 5717 5716 5715 5714 5713 5711 5709 5706 5704 5702 5699 5696
5728 5726 5725 5723 5722 5720 5719 5718 5717 5716 5714 5714 5714 5713 5714 5714 5714 5715 5715 5716 5716 5716 5716 5716 5716 5716 5716 5717 5717 5717 5716 5716 5715 5715 5713 5712 5710 5708 5706 5704 5702 5699 5697 5694
5722 5721 5719 5718 5717 5716 5715 5714 5713 5712 5711 5711 5710 5710 5710 5711 5711 5712 5712 5713 5714 5715 5715 5715 5715 5716 5716 5716 5716 5715 5715 5714 5714 5713 5711 5710 5708 5706 5704 5702 5700 5697 5694 5692
5717 5716 5715 5713 5712 5711 5710 5709 5709 5708 5708 5707 5707 5707 5708 5708 5709 5709 5710 5712 5713 5713 5714 5714 5715 5715 5715 5715 5715 5714 5714 5713 5712 5711 5710 5708 5706 5704 5702 5700 5698 5695 5692 5689
5712 5711 5710 5708 5707 5707 5706 5706 5705 5705 5705 5704 5704 5705 5705 5706 5706 5708 5709 5710 5711 5712 5713 5713 5714 5714 5714 5714 5714 5713 5713 5711 5710 5709 5708 5706 5705 5703 5701 5698 5696 5693 5690 5687
5707 5706 5705 5704 5703 5702 5702 5702 5701 5701 5701 5701 5701 5702 5703 5703 5705 5705 5707 5708 5709 5710 5711 5712 5713 5713 5713 5713 5713 5712 5711 5710 5709 5708 5706 5705 5703 5701 5699 5696 5693 5690 5687 5684
5701 5701 5700 5699 5699 5698 5698 5698 5697 5698 5698 5698 5699 5699 5700 5702 5703 5704 5705 5707 5708 5709 5710 5711 5712 5712 5712 5712 5712 5711 5710 5709 5708 5706 5705 5704 5702 5699 5697 5694 5691 5688 5685 5682
5696 5695 5695 5694 5694 5694 5694 5694 5694 5694 5695 5695 5696 5697 5698 5699 5700 5702 5703 5705 5706 5707 5708 5709 5710 5711 5711 5711 5710 5710 5709 5707 5706 5705 5704 5702 5700 5698 5695 5692 5689 5686 5683 5679
5691 5691 5690 5690 5689 5690 5690 5690 5691 5691 5692 5692 5693 5695 5696 5697 5699 5700 5702 5704 5705 5706 5707 5708 5709 5709 5710 5709 5709 5708 5707 5706 5705 5703 5702 5700 5698 5696 5693 5690 5687 5684 5680 5677
5686 5685 5685 5685 5685 5686 5686 5687 5688 5688 5689 5690 5691 5693 5694 5696 5697 5699 5701 5703 5704 5705 5706 5707 5707 5708 5708 5708 5707 5707 5706 5705 5703 5702 5700 5698 5696 5694 5691 5688 5685 5682 5679 5675
5681 5680 5681 5681 5681 5682 5682 5683 5685 5686 5687 5688 5690 5691 5693 5694 5696 5698 5699 5701 5702 5703 5705 5706 5706 5706 5706 5706 5706 5705 5704 5703 5702 5700 5699 5697 5694 5692 5690 5687 5684 5680 5677 5673
5676 5676 5676 5676 5677 5678 5679 5680 5682 5683 5685 5687 5688 5690 5691 5693 5695 5696 5698 5699 5701 5702 5703 5704 5704 5705 5705 5704 5704 5704 5703 5702 5700 5698 5697 5695 5693 5690 5688 5685 5682 5678 5675 5671
5670 5671 5671 5672 5673 5674 5676 5677 5679 5681 5683 5685 5686 5688 5690 5691 5693 5695 5697 5698 5699 5700 5701 5702 5702 5703 5703 5703 5703 5702 5701 5700 5698 5696 5695 5693 5691 5688 5686 5683 5680 5676 5672 5668
5665 5666 5666 5668 5669 5671 5672 5674 5676 5678 5680 5682 5684 5686 5688 5690 5691 5693 5695 5696 5697 5699 5699 5700 5700 5701 5701 5701 5701 5700 5699 5698 5696 5694 5693 5690 5688 5686 5684 5681 5677 5674 5670 5666